Content
SEND FEEDBACK

Daily
Averages
Monthly
Summary
United States of America

WRIGHTSBORO, NORTH CAROLINA


Home > North America > United States > North Carolina
Elevation: 30 feet     Latitude: 34 18N     Longitude: 077 54W

WEATHER
 
SELECT A DAY
Number of Records: 211,656;   Date Range: 1/1/95 - 9/29/14
 
SHARE

PRINT THIS DATA

[ ← Previous Day ]
WEATHER ALMANAC - SEPTEMBER 15, 2013
[ Next Day → ]
[ °C ]   °F
Weather ElementAverageHighLow
Temperature74 °F81 °F (3:53 pm)64 °F (6:53 am)
Dewpoint65.6 °F70 °F (10:53 pm)62.1 °F (2:53 am)
Humidity75.8 %93 % (6:53 am)60 % (3:53 pm)
Barometer30.16 in30.21 in (10:53 am)30.11 in (1:53 am)
Wind Speed7.6 mph11.5 mph (10:53 am)
Wind Gust18.4 mph (10:53 am)
Weather ElementAverage
Visibility10 mi
Wind DirectionENE (66.4 °)

Weather ElementTotal
Precipitation0.02 in
Cooling Degree Days7.5 (Base 65)
Growing Degree Days22.5 (Base 50)
Averaged from 25 records on September 15, 2013
WEATHER CONDITIONS BREAKOUT
WIND DIRECTION BREAKOUT
WEATHER BY HOUR - SEPTEMBER 15, 2013
[ °C ]   °F
Local TimeTemperatureDewpointHumidityBarometerVisibilityWind DirectionWind SpeedGust SpeedPrecipitationEventsConditions
1:53 AM66.0 °F63.0 °F90 %30.11 in10.0 miNE (40°)8.1 mphClear
2:53 AM66.0 °F62.1 °F87 %30.12 in10.0 miNE (50°)4.6 mphClear
3:53 AM66.0 °F62.1 °F87 %30.12 in10.0 miNE (50°)6.9 mphClear
4:53 AM64.9 °F62.1 °F90 %30.13 in10.0 miNNE (20°)8.1 mphClear
5:53 AM64.9 °F62.1 °F90 %30.14 in10.0 miNNE (30°)9.2 mphClear
6:53 AM64.0 °F62.1 °F93 %30.16 in10.0 miNE (40°)6.9 mphScattered Clouds
7:53 AM66.0 °F62.1 °F87 %30.17 in10.0 miNNE (30°)9.2 mphClear
8:53 AM71.1 °F64.0 °F78 %30.19 in10.0 miNE (40°)10.4 mphMostly Cloudy
9:53 AM75.9 °F66.0 °F71 %30.20 in10.0 miENE (60°)10.4 mphClear
10:53 AM78.1 °F66.0 °F66 %30.21 in10.0 miEast (80°)11.5 mph18.4 mphClear
11:49 AM80.6 °F66.2 °F61 %30.21 in10.0 miENE (70°)9.2 mph16.1 mphMostly Cloudy
11:53 AM78.1 °F66.0 °F66 %30.21 in10.0 miENE (60°)11.5 mph16.1 mphMostly Cloudy
12:53 PM79.0 °F66.0 °F64 %30.20 in10.0 miENE (70°)8.1 mphMostly Cloudy
1:36 PM78.8 °F66.2 °F65 %30.19 in10.0 miENE (70°)9.2 mphOvercast
1:53 PM80.1 °F66.0 °F62 %30.18 in10.0 miENE (70°)6.9 mphMostly Cloudy
2:53 PM80.1 °F66.0 °F62 %30.16 in10.0 miESE (110°)10.4 mphScattered Clouds
3:53 PM81.0 °F66.0 °F60 %30.14 in10.0 miEast (80°)8.1 mphClear
4:53 PM80.1 °F66.0 °F62 %30.14 in10.0 miEast (100°)5.8 mphClear
5:53 PM78.1 °F66.9 °F68 %30.14 in10.0 miEast (100°)10.4 mphScattered Clouds
6:53 PM77.0 °F66.9 °F71 %30.14 in10.0 miEast (100°)6.9 mphPartly Cloudy
7:53 PM75.0 °F68.0 °F79 %30.14 in10.0 miEast (100°)4.6 mphMostly Cloudy
8:53 PM75.0 °F69.1 °F82 %30.14 in10.0 miEast (100°)4.6 mphClear
9:53 PM75.0 °F69.1 °F82 %30.15 in10.0 miEast (90°)3.5 mphClear
10:53 PM75.0 °F70.0 °F84 %30.16 in10.0 miEast (100°)4.6 mph0.02 inClear
11:53 PM73.9 °F70.0 °F87 %30.15 in10.0 miCalmClear
Hourly data recorded from KILM, located miles away from Wrightsboro, North Carolina







STORIES FROM OUR PARTNERS